This is the latest recevied weather packets stored in our database for station/object KB3KBR-WX. If no packets are shown the sender has not sent any weather packets the latest 10 day(s).
| Time | Temp. | Humidity | Pressure | Rain* | Wind** | Luminosity | Snow |
|---|---|---|---|---|---|---|---|
| 1787759010 | 22.78° C | 73% | 1015.6 hPa | 0 mm | - | - | - |
| 1787758710 | 22.78° C | 74% | 1015.7 hPa | 0 mm | - | - | - |
| 1787758412 | 22.78° C | 75% | 1015.6 hPa | 0 mm | - | - | - |
| 1787758081 | 22.22° C | 76% | 1015.7 hPa | 0 mm | - | - | - |
| 1787757779 | 22.22° C | 78% | 1015.5 hPa | 0 mm | - | - | - |
| 1787757449 | 22.22° C | 78% | 1015.6 hPa | 0 mm | - | - | - |
| 1787757120 | 21.67° C | 78% | 1015.6 hPa | 0 mm | - | - | - |
| 1787756821 | 21.67° C | 81% | 1015.7 hPa | 0 mm | - | - | - |
| 1787756488 | 21.11° C | 81% | 1015.8 hPa | 0 mm | - | - | - |
| 1787756158 | 21.11° C | 84% | 1015.8 hPa | 0 mm | - | - | - |
| 1787755829 | 20° C | 87% | 1015.8 hPa | 0 mm | - | - | - |
| 1787755529 | 19.44° C | 91% | 1015.8 hPa | 0 mm | - | - | - |
| 1787755201 | 18.89° C | 96% | 1015.9 hPa | 0 mm | - | - | - |
| 1787754898 | 18.89° C | 97% | 1016 hPa | 0 mm | - | - | - |
| 1787754600 | 17.78° C | 97% | 1015.9 hPa | 0 mm | - | - | - |
| 1787754270 | 17.78° C | 97% | 1016 hPa | 0 mm | - | - | - |
| 1787753969 | 17.22° C | 97% | 1016.1 hPa | 0 mm | - | - | - |
| 1787753670 | 17.22° C | 97% | 1016.1 hPa | 0 mm | - | - | - |
| 1787753342 | 16.67° C | 97% | 1016.1 hPa | 0 mm | - | - | - |
| 1787752079 | 15.56° C | 97% | 1016.2 hPa | 0 mm | - | - | - |
| 1787751149 | 14.44° C | 96% | 1016.1 hPa | 0 mm | - | - | - |
| 1787750880 | 13.89° C | 96% | 1016.2 hPa | 0 mm | - | - | - |
| 1787750825 | 13.89° C | 96% | 1016.2 hPa | 0 mm | - | - | - |
| 1787749560 | 13.33° C | 96% | 1016.4 hPa | 0 mm | - | - | - |
| 1787748630 | 12.78° C | 96% | 1016.5 hPa | 0 mm | - | - | - |
* Rain latest hour (hover to see other rain measurements)
** Current wind speed in m/s (hover to see current wind gust speed)